sat.trackr.live / text

‹ back to catalog

STARLINK-37114

NORAD 68561 · 2026-070V

PAYLOAD ACTIVE UNKNOWN

§ Identity

Operator
Country
US
Launch date
2026-04-02
Launch site
AFETR
Launch vehicle
Mass (kg)
RCS (m²)

Purposes: comms

External: N2YO · Heavens-Above · Gunter

§ Orbital elements

Epoch: 2026-09-19T22:28:26.432256Z

Period
93.85 min
Inclination
53.1580°
Eccentricity
0.0001707
Mean motion
15.34410229 rev/d
Perigee alt
461.5 km
Apogee alt
463.8 km
Semi-major
6,840.8 km
B*
3.1251e-4
RAAN
176.1512°
Arg perigee
5.6754°
Mean anomaly
354.4268°
Rev number
2,635

§ Raw data

STARLINK-371141 68561U 26070V   26262.93641704  .00010200  00000+0  31251-3 0  99902 68561  53.1580 176.1512 0001707   5.6754 354.4268 15.34410229 26354

JSON: /api/v1/satellites/68561 · /tle

For live sub-satellite position, see the globe view (requires WebGL).

§ Visibility from observer

Set your observer location to see the next 7 days of passes ≥ 10°. The values pass through the URL so the page stays shareable.

No JS? Fill the form by hand. The geolocation button needs JavaScript.